Location: Spruce Knob
(38.6995°N, 79.5330°W)
Time: 18:56:53
(UTC-04:00)

CUTE 1.7 + AOD 2 - Visible Passes

Search period start: 31 March 2023 00:00
Search period end: 10 April 2023 00:00
Orbit: 584 x 602 km, 97.7° (Epoch: 31 March)

Date Brightness Start Highest point End Pass type
(mag) Time Alt. Az. Time Alt. Az. Time Alt. Az.
31 Mar ? 04:33:07 10° NNE 04:36:53 45° E 04:36:53 45° E visible
31 Mar ? 06:10:04 10° NNW 06:12:21 14° WNW 06:13:30 13° W visible
01 Apr ? 04:41:57 10° NNE 04:46:03 59° E 04:46:03 59° E visible
01 Apr ? 06:19:45 10° NW 06:21:10 11° WNW 06:22:34 10° W visible
02 Apr ? 04:50:48 10° NNE 04:55:01 77° E 04:55:12 75° SE visible
03 Apr ? 04:59:40 10° N 05:03:54 84° WNW 05:04:20 71° SSW visible
04 Apr ? 05:08:34 10° N 05:12:46 65° WNW 05:13:27 55° SW visible
05 Apr ? 03:44:05 10° ENE 03:45:45 12° E 03:45:56 12° E visible
05 Apr ? 05:17:30 10° N 05:21:36 51° WNW 05:22:32 42° WSW visible
06 Apr ? 03:52:09 10° NE 03:54:40 15° E 03:55:01 15° E visible
06 Apr ? 05:26:27 10° N 05:30:24 40° WNW 05:31:37 32° WSW visible
07 Apr ? 04:00:30 10° NE 04:03:34 19° E 04:04:04 19° ESE visible
07 Apr ? 05:35:25 10° N 05:39:10 32° WNW 05:40:40 25° WSW visible
08 Apr ? 04:08:58 10° NE 04:12:26 24° E 04:13:06 23° ESE visible
08 Apr ? 05:44:25 10° NNW 05:47:55 26° WNW 05:49:42 19° WSW visible
09 Apr ? 04:17:31 10° NE 04:21:16 30° E 04:22:08 28° ESE visible
09 Apr ? 05:53:28 10° NNW 05:56:38 21° WNW 05:58:44 15° WSW visible
